[[{"header":{"parameterUnit":"m.s-1","parameterCategory":1,"la1":30.2991,"la2":30.254,"lo1":-89.0895,"lo2":-89.0444,"dy":0.0017,"dx":0.0017,"nx":28,"ny":28,"refTime":"2024-07-02T03:00:00:Z","depth":0,"parameterNumber":2,"parameterNumberName":"U-component_of_WINDS"},"data":[0,0,0,0,0,0,0,0,0,0,0,0,0,0,0,0,0,0,0,0,0,0,0,0,0,0,0,0,0,0,0,0,0,0,0,0,0,0,0,0,0,0,0,0,0,0,0,0,0,0,0,0,0,0,0,0,0,0,-0.9227,-0.9226,0,-0.9112,-0.9111,-0.911,-0.9047,-0.9047,-0.9047,-0.9047,-0.8927,-0.8924,-0.8921,0,0,0,0,0,0,0,0,0,0,0,0,0,-0.9393,-0.939,-0.9228,-0.9226,-0.9225,-0.9113,-0.9111,-0.9109,-0.9047,-0.9047,-0.9047,-0.9047,-0.8928,-0.8925,-0.8921,0,0,0,0,0,0,0,0,0,0,0,0,0,-0.9304,-0.9389,-0.9228,-0.918,-0.9175,-0.9113,-0.9111,-0.9109,-0.9047,-0.9047,-0.9047,-0.9047,-0.8929,-0.8925,-0.892,-0.8896,0,0,-0.8906,-0.8904,0,0,0,0,0,0,0,0,-0.9309,-0.9298,-0.9189,-0.9183,-0.9177,-0.9094,-0.9125,-0.9038,-0.9047,-0.9096,-0.9047,-0.9047,-0.8983,-0.8974,-0.8953,-0.8891,-0.8886,-0.8906,-0.8903,-0.8901,-0.89,0,0,0,0,0,0,0,-0.9315,-0.9302,-0.9182,-0.9187,-0.918,-0.9164,-0.9152,-0.9108,-0.9042,-0.9092,-0.9087,-0.9074,-0.898,-0.8957,-0.8949,-0.8884,-0.8906,-0.8902,-0.8899,-0.8897,-0.8797,-0.8798,0,0,0,0,0,0,-0.9329,-0.9308,-0.9186,-0.9178,-0.9244,-0.9162,-0.9147,-0.9121,-0.9042,-0.903,-0.9074,-0.9072,-0.8965,-0.8955,-0.8945,-0.8912,-0.8901,-0.8897,-0.8894,-0.8797,-0.8797,-0.8798,0,0,0,0,0,0,-0.9333,-0.9319,-0.919,-0.9242,-0.9224,-0.9159,-0.913,-0.9119,-0.9096,-0.9029,-0.9017,-0.9064,-0.8964,-0.8951,-0.8909,-0.8907,-0.8895,-0.8891,-0.8797,-0.8797,-0.8798,-0.8846,0,0,0,0,0,0,-0.9338,-0.9321,-0.9311,-0.9242,-0.9222,-0.9157,-0.913,-0.9117,-0.9089,-0.9084,-0.9016,-0.9004,-0.8963,-0.8916,-0.8905,-0.89,-0.8887,-0.8797,-0.8797,-0.8797,-0.8844,-0.8848,-0.8851,0,0,0,0,0,-0.9344,-0.9329,-0.9311,-0.9296,-0.9208,-0.9157,-0.9145,-0.9099,-0.9089,-0.9078,-0.9036,-0.9007,-0.8909,-0.8913,-0.8899,-0.8893,-0.8797,-0.8797,-0.8797,-0.8843,-0.8847,-0.8851,0,0,0,0,0,0,-0.9398,-0.9319,-0.9298,-0.926,-0.9216,-0.9147,-0.9132,-0.9105,-0.9062,-0.9059,-0.9003,-0.8988,-0.8951,-0.8918,-0.8923,-0.8866,-0.885,-0.8848,-0.8889,-0.8893,-0.8896,-0.8905,-0.8883,0,0,0,0,0,-0.9406,-0.9371,-0.9303,-0.9276,-0.9255,-0.9198,-0.9173,-0.9142,-0.9093,-0.9074,-0.9028,-0.8982,-0.8941,-0.8915,-0.8874,-0.8839,-0.8824,-0.8829,-0.8832,-0.8835,-0.8833,-0.8814,-0.8815,-0.8798,-0.8798,-0.8798,0,0,-0.9421,-0.9373,-0.9354,-0.9286,-0.9248,-0.9213,-0.9182,-0.9146,-0.912,-0.9068,-0.9026,-0.8991,-0.8936,-0.8898,-0.8879,-0.8869,-0.8835,-0.8835,-0.8838,-0.8835,-0.8814,-0.8816,-0.8817,-0.8798,-0.8798,-0.8798,0,0,-0.943,-0.9391,-0.9364,-0.9327,-0.927,-0.9232,-0.9226,-0.9161,-0.9136,-0.9093,-0.9054,-0.9022,-0.8952,-0.8915,-0.8886,-0.8884,-0.8855,-0.8872,-0.8888,-0.887,-0.8871,-0.8872,-0.8871,-0.8871,-0.887,-0.887,-0.887,0,-0.9456,-0.9402,-0.9353,-0.932,-0.9291,-0.9244,-0.9217,-0.9183,-0.9116,-0.9097,-0.9087,-0.9,-0.8959,-0.8912,-0.8912,-0.889,-0.8882,-0.8879,-0.8875,-0.8875,-0.8875,-0.8874,-0.8874,-0.8873,-0.8872,-0.8872,-0.8872,0,-0.9436,-0.9399,-0.9385,-0.9322,-0.9291,-0.9261,-0.9208,-0.9183,-0.9155,-0.9118,-0.9075,-0.9025,-0.8973,-0.896,-0.8931,-0.8909,-0.8905,-0.8886,-0.8868,-0.888,-0.8878,-0.8877,-0.8876,-0.8875,-0.8875,-0.8874,0,0,-0.9475,-0.9387,-0.9382,-0.9354,-0.9288,-0.9259,-0.9227,-0.9177,-0.9157,-0.9112,-0.9084,-0.9027,-0.9009,-0.8978,-0.8944,-0.8928,-0.8929,-0.8911,-0.8908,-0.8916,-0.8903,-0.8917,-0.8917,-0.8911,-0.891,-0.891,-0.8907,0,-0.9476,-0.9416,-0.9372,-0.933,-0.9296,-0.9251,-0.9223,-0.918,-0.9145,-0.9111,-0.9072,-0.9033,-0.9012,-0.8993,-0.8975,-0.8933,-0.8926,-0.8933,-0.8884,-0.8882,-0.8899,-0.8916,-0.8931,-0.8931,-0.8906,-0.8906,-0.8906,0,-0.9467,-0.9425,-0.938,-0.9319,-0.9303,-0.9279,-0.923,-0.9198,-0.9148,-0.9124,-0.9089,-0.9055,-0.902,-0.9006,-0.8957,-0.8962,-0.894,-0.8916,-0.8915,-0.8908,-0.8895,-0.891,-0.893,-0.893,-0.8904,-0.8904,-0.8904,0,-0.9501,-0.9433,-0.9397,-0.9374,-0.9302,-0.9286,-0.9255,-0.9205,-0.9178,-0.9136,-0.9118,-0.9071,-0.9046,-0.9011,-0.8965,-0.8959,-0.892,-0.8903,-0.8899,-0.89,-0.8892,-0.8893,-0.8909,-0.8878,-0.8878,-0.8878,-0.8878,0,-0.9506,-0.948,-0.9411,-0.9389,-0.9359,-0.9309,-0.928,-0.9245,-0.9202,-0.9172,-0.9131,-0.9104,-0.9045,-0.9011,-0.8975,-0.894,-0.8929,-0.8908,-0.8899,-0.8912,-0.8915,-0.8896,-0.8895,-0.8878,-0.8878,-0.8878,-0.8878,0,-0.9538,-0.9491,-0.9449,-0.9385,-0.9368,-0.9349,-0.9293,-0.927,-0.9234,-0.9197,-0.9185,-0.9128,-0.9086,-0.9037,-0.8979,-0.8954,-0.8922,-0.8908,-0.8939,-0.8934,-0.8933,-0.8934,-0.8936,-0.8934,-0.8906,-0.8906,-0.8907,0,-0.9544,-0.9523,-0.9457,-0.9435,-0.9405,-0.9369,-0.9342,-0.9292,-0.9265,-0.9208,-0.9192,-0.9147,-0.9108,-0.9043,-0.8996,-0.8952,-0.8937,-0.8941,-0.8929,-0.8943,-0.8937,-0.8939,-0.8936,-0.8944,-0.8944,-0.8945,-0.8945,0,-0.956,-0.9538,-0.9501,-0.9455,-0.9424,-0.9385,-0.9345,-0.9329,-0.9271,-0.9243,-0.92,-0.9171,-0.9112,-0.9068,-0.9017,-0.8985,-0.8956,-0.8949,-0.8946,-0.8959,-0.8978,-0.8968,-0.8947,-0.8949,-0.8949,-0.8949,-0.8948,-0.8948,-0.958,-0.9559,-0.951,-0.9469,-0.9434,-0.9398,-0.9373,-0.9334,-0.9297,-0.9246,-0.9219,-0.9176,-0.9128,-0.9058,-0.9027,-0.8993,-0.8983,-0.8978,-0.8977,-0.8976,-0.898,-0.8984,-0.8984,-0.8983,-0.8983,-0.8983,-0.8983,0,-0.9594,-0.956,-0.9523,-0.9469,-0.9437,-0.9413,-0.9367,-0.9343,-0.9306,-0.9264,-0.9227,-0.9178,-0.9135,-0.9085,-0.9039,-0.9022,-0.9007,-0.9012,-0.9012,-0.9005,-0.8992,-0.8999,-0.9024,-0.9024,-0.9024,-0.9024,-0.9024,-0.9024,-0.9597,-0.9562,-0.9534,-0.9481,-0.9447,-0.9405,-0.9382,-0.9348,-0.9314,-0.9261,-0.9226,-0.9194,-0.9148,-0.9099,-0.9059,-0.9046,-0.9031,-0.9039,-0.9022,-0.901,-0.9006,-0.9003,-0.901,-0.9036,-0.9036,-0.9038,-0.9038,-0.9038]},{"header":{"parameterUnit":"m.s-1","parameterCategory":1,"la1":30.2991,"la2":30.254,"lo1":-89.0895,"lo2":-89.0444,"dy":0.0017,"dx":0.0017,"nx":28,"ny":28,"refTime":"2024-07-02T03:00:00:Z","depth":0,"parameterNumber":3,"parameterNumberName":"V-component_of_WINDS"},"data":[0,0,0,0,0,0,0,0,0,0,0,0,0,0,0,0,0,0,0,0,0,0,0,0,0,0,0,0,0,0,0,0,0,0,0,0,0,0,0,0,0,0,0,0,0,0,0,0,0,0,0,0,0,0,0,0,0,0,3.5146,3.5145,0,3.5112,3.5111,3.5111,3.5108,3.5108,3.5109,3.5109,3.507,3.5068,3.5067,0,0,0,0,0,0,0,0,0,0,0,0,0,3.5204,3.5203,3.5146,3.5145,3.5145,3.5112,3.5111,3.5111,3.5108,3.5108,3.5109,3.5109,3.507,3.5069,3.5067,0,0,0,0,0,0,0,0,0,0,0,0,0,3.5175,3.5203,3.5146,3.5139,3.5138,3.5112,3.5111,3.5111,3.5108,3.5108,3.5109,3.5109,3.5071,3.5069,3.5067,3.5043,0,0,3.506,3.5059,0,0,0,0,0,0,0,0,3.5177,3.5173,3.5141,3.514,3.5139,3.5115,3.5118,3.5088,3.5108,3.5119,3.5109,3.511,3.5084,3.5081,3.5073,3.5041,3.5039,3.506,3.5059,3.5058,3.5057,0,0,0,0,0,0,0,3.5179,3.5174,3.5132,3.514,3.5139,3.5137,3.5134,3.5112,3.5099,3.5118,3.5118,3.5114,3.5083,3.5075,3.5072,3.5038,3.506,3.5058,3.5057,3.5056,3.4985,3.4985,0,0,0,0,0,0,3.5183,3.5176,3.5133,3.5131,3.516,3.5136,3.5132,3.5122,3.5099,3.5096,3.5114,3.5114,3.5078,3.5075,3.5071,3.5042,3.5058,3.5056,3.5055,3.4986,3.4985,3.4985,0,0,0,0,0,0,3.5184,3.5179,3.5134,3.5154,3.5148,3.5134,3.5123,3.5121,3.5112,3.5096,3.5093,3.5108,3.5079,3.5074,3.505,3.504,3.5055,3.5053,3.4987,3.4986,3.4985,3.4983,0,0,0,0,0,0,3.5186,3.5179,3.5171,3.5153,3.5147,3.5115,3.5122,3.512,3.5109,3.511,3.5089,3.5087,3.5079,3.5053,3.5048,3.5038,3.5051,3.4988,3.4986,3.4985,3.4984,3.4982,3.498,0,0,0,0,0,3.5188,3.517,3.517,3.5165,3.5136,3.5115,3.5111,3.5104,3.5109,3.5099,3.5089,3.5087,3.5042,3.5051,3.5045,3.5034,3.4988,3.4987,3.4985,3.4984,3.4982,3.498,0,0,0,0,0,0,3.5185,3.5168,3.5168,3.5144,3.5131,3.5114,3.5103,3.5101,3.5085,3.5086,3.5076,3.5072,3.5049,3.5039,3.5049,3.501,3.5016,3.5013,3.5017,3.5015,3.5013,3.5016,3.505,0,0,0,0,0,3.5182,3.5167,3.5153,3.5133,3.5127,3.5116,3.5106,3.5102,3.5088,3.5082,3.5069,3.5054,3.5037,3.5025,3.5008,3.4983,3.4978,3.4972,3.497,3.4969,3.4967,3.4953,3.495,3.498,3.498,3.498,0,0,3.5174,3.5163,3.5154,3.5133,3.5122,3.5106,3.5111,3.5094,3.5082,3.5078,3.5056,3.5047,3.5029,3.5005,3.4993,3.4996,3.4958,3.4967,3.4966,3.4965,3.4951,3.4948,3.4946,3.4979,3.4979,3.4979,0,0,3.5153,3.5144,3.5127,3.5117,3.5102,3.5095,3.5091,3.5075,3.5069,3.5047,3.5044,3.5029,3.4999,3.4987,3.4977,3.4953,3.4951,3.4948,3.4939,3.4926,3.4923,3.4921,3.4913,3.491,3.4945,3.4945,3.4945,0,3.5146,3.5124,3.5118,3.5102,3.5092,3.5091,3.5073,3.5063,3.5042,3.5035,3.5039,3.5002,3.499,3.4963,3.4958,3.495,3.4944,3.495,3.4924,3.4922,3.492,3.4912,3.4909,3.4945,3.4945,3.4945,3.4945,0,3.5115,3.51,3.5088,3.5071,3.5059,3.5043,3.5034,3.5023,3.502,3.5013,3.499,3.4976,3.4957,3.495,3.4946,3.4923,3.4925,3.4927,3.4932,3.4917,3.4909,3.4906,3.4945,3.4945,3.4945,3.4945,0,0,3.509,3.5071,3.5067,3.506,3.5043,3.5031,3.5014,3.4996,3.4988,3.4973,3.4959,3.4934,3.4936,3.4925,3.492,3.4908,3.4891,3.4911,3.491,3.4908,3.4865,3.4864,3.486,3.489,3.4889,3.4889,3.4866,0,3.5068,3.5039,3.5035,3.5009,3.4995,3.4994,3.4979,3.4967,3.496,3.4946,3.4937,3.492,3.4924,3.4917,3.4906,3.4895,3.4882,3.4897,3.4875,3.4874,3.488,3.4856,3.4855,3.4834,3.4863,3.4863,3.4862,0,3.5037,3.5025,3.4998,3.4985,3.4979,3.4966,3.495,3.4937,3.4924,3.4919,3.4908,3.4904,3.4886,3.4893,3.4868,3.4878,3.4869,3.4863,3.4862,3.4859,3.4867,3.4853,3.4827,3.4824,3.4857,3.4858,3.4858,0,3.5022,3.4998,3.498,3.4973,3.4957,3.4948,3.4941,3.4928,3.4918,3.4904,3.4898,3.4881,3.4872,3.4859,3.4851,3.4857,3.4826,3.4832,3.4821,3.4821,3.4814,3.4815,3.4787,3.4809,3.4809,3.4809,3.4809,0,3.4997,3.4981,3.4973,3.4961,3.4943,3.4938,3.492,3.4913,3.4902,3.4888,3.4885,3.4872,3.4863,3.4848,3.4842,3.4822,3.4818,3.4813,3.4811,3.4813,3.4814,3.4807,3.4808,3.4808,3.4808,3.4808,3.4808,0,3.4976,3.497,3.495,3.4938,3.4934,3.4922,3.491,3.4899,3.4892,3.4875,3.4871,3.486,3.4843,3.4834,3.4812,3.4808,3.4786,3.4785,3.4791,3.479,3.478,3.4781,3.4746,3.4742,3.4766,3.4766,3.4766,0,3.4961,3.4949,3.4936,3.4927,3.4921,3.4907,3.4898,3.4892,3.4882,3.4867,3.4857,3.4841,3.4827,3.48,3.4789,3.4773,3.4771,3.476,3.4769,3.4771,3.4771,3.4772,3.4771,3.4759,3.4759,3.4758,3.4758,0,3.4934,3.4932,3.492,3.4907,3.4896,3.4885,3.4874,3.4867,3.486,3.4849,3.4833,3.4822,3.4801,3.4785,3.4768,3.4759,3.4757,3.4756,3.4753,3.4754,3.4758,3.4756,3.4787,3.4757,3.4757,3.4757,3.4757,3.4757,3.4915,3.4905,3.4895,3.4881,3.4873,3.4863,3.4852,3.4845,3.4832,3.4816,3.4813,3.4796,3.4783,3.476,3.4751,3.4737,3.4739,3.4734,3.4733,3.4732,3.4732,3.4761,3.4734,3.4734,3.4734,3.4734,3.4734,0,3.4888,3.4882,3.487,3.4856,3.4845,3.4847,3.4835,3.4826,3.4811,3.48,3.4788,3.4769,3.4754,3.4743,3.4726,3.4717,3.4716,3.4713,3.4714,3.4712,3.473,3.4735,3.4714,3.4714,3.4715,3.4715,3.4715,3.4715,3.4873,3.4856,3.4853,3.4832,3.4826,3.481,3.4804,3.4794,3.4786,3.4766,3.4754,3.4747,3.4736,3.472,3.4705,3.4702,3.4696,3.4694,3.4691,3.4708,3.471,3.4712,3.4717,3.4692,3.4692,3.4673,3.4673,3.4673]}]]